Date,TemperatureHighF,TemperatureAvgF,TemperatureLowF,DewpointHighF,DewpointAvgF,DewpointLowF,HumidityHigh,HumidityAvg,HumidityLow,PressureMaxIn,PressureMinIn,WindSpeedMaxMPH,WindSpeedAvgMPH,GustSpeedMaxMPH,PrecipitationSumIn
2013-4-1,39.5,33.0,28.8,30.7,27.8,25.3,93,81,60,30.20,30.01,20,7,24,0.03
2013-4-2,54.7,39.9,28.8,33.6,28.0,19.8,90,66,27,30.23,30.07,13,2,15,0.01
2013-4-3,55.1,44.9,35.3,36.2,30.1,20.0,83,58,27,30.15,29.96,20,3,21,0.00
2013-4-4,45.7,40.2,33.2,36.4,28.4,11.6,93,66,26,30.07,29.86,29,7,30,0.08
2013-4-5,45.4,36.6,30.7,31.4,24.0,15.0,93,62,40,30.15,30.03,28,9,32,0.00
2013-4-6,45.7,37.7,32.2,29.0,23.8,15.0,72,58,43,30.14,30.02,30,11,36,0.00
2013-4-7,48.8,37.3,26.7,28.2,24.1,15.3,90,61,38,30.06,29.60,36,13,42,0.00
2013-4-8,32.2,26.5,23.0,24.6,20.1,13.1,91,78,48,30.18,29.52,23,6,28,0.03
2013-4-9,43.5,31.2,21.6,19.0,13.3,5.5,78,51,22,30.34,30.10,31,8,36,0.00
2013-4-10,59.5,44.9,33.1,33.9,23.3,14.2,65,43,25,30.30,29.89,27,8,28,0.00
2013-4-11,55.6,43.5,34.3,35.3,30.9,18.4,92,64,35,30.02,29.79,18,4,20,0.00
2013-4-12,58.9,44.7,34.9,35.9,25.3,19.8,70,48,24,29.97,29.80,27,7,27,0.00
2013-4-13,51.7,45.6,37.9,31.5,23.1,6.0,73,42,20,29.79,29.64,37,15,40,0.00
2013-4-14,47.1,39.0,32.8,28.7,24.7,20.3,75,57,38,29.78,29.61,46,16,48,0.00
2013-4-15,37.6,28.7,21.4,26.4,19.6,9.7,90,70,34,29.87,29.60,34,11,40,0.00
2013-4-16,28.1,22.0,19.4,19.2,15.8,7.1,89,78,50,30.31,29.83,16,3,23,0.04
2013-4-17,35.9,25.6,16.9,17.4,10.6,4.2,87,55,32,30.45,30.26,29,6,29,0.03
2013-4-18,53.9,38.2,25.6,16.1,10.1,3.7,45,32,19,30.41,30.25,16,4,21,0.00
2013-4-19,50.8,42.1,33.7,29.6,22.4,12.6,67,46,31,30.28,30.08,29,9,32,0.00
2013-4-20,64.7,46.9,32.4,31.2,23.1,-3.3,72,44,9,30.17,29.97,11,2,13,0.00
2013-4-21,60.9,49.9,39.1,36.8,25.3,14.3,60,40,23,30.06,29.90,21,4,21,0.00
2013-4-22,65.6,49.7,35.9,33.4,22.7,7.5,66,38,14,30.06,29.84,21,4,25,0.00
2013-4-23,62.7,42.0,28.2,28.5,9.0,0.5,46,26,15,30.17,29.92,26,6,30,0.00
2013-4-24,56.3,44.2,33.8,10.2,3.0,-4.6,23,18,14,30.06,29.84,22,6,28,0.00
2013-4-25,59.2,47.8,40.3,25.7,15.2,2.7,42,27,19,30.06,29.87,19,4,21,0.00
2013-4-26,67.1,53.2,41.5,34.3,23.1,6.3,54,34,10,30.17,30.03,15,3,18,0.00
2013-4-27,63.1,53.7,46.2,35.5,30.2,21.2,57,42,22,30.18,30.03,21,5,25,0.00
2013-4-28,64.3,53.8,44.6,37.4,25.5,9.1,57,36,14,30.06,29.89,17,4,19,0.00
2013-4-29,62.6,53.9,45.5,38.8,32.0,26.8,56,44,28,29.89,29.71,29,8,30,0.00
2013-4-30,65.2,49.6,37.3,35.1,22.4,-9.0,70,38,13,30.04,29.67,22,3,26,0.00